{"data":{"norad_id":61637,"intl_designator":"2024-191S","name":"STARLINK-32419","alt_names":[],"object_type":"PAYLOAD","status":"ACTIVE","operator":null,"country":"US","launch_date":"2024-10-23","launch_site_code":"AFETR","launch_vehicle":null,"mission":null,"orbit_class":"UNKNOWN","rcs_meters":null,"size_class":null,"mass_kg":null,"dimensions":null,"purposes":["comms"],"wikipedia_slug":null,"has_3d_model":false,"image_url":null,"decayed_at":null,"tle_current":{"epoch":"2026-05-25T04:28:01.936128Z","epoch_age_seconds":65813,"freshness":"FRESH","line1":"1 61637U 24191S   26145.18613352 -.00000296  00000+0 -12450-5 0  9992","line2":"2 61637  43.0017  82.6544 0000567 256.4120 103.6668 15.27573898 89234","mean_motion":15.27573898,"eccentricity":5.67e-5,"inclination_deg":43.0017,"raan_deg":82.6544,"arg_perigee_deg":256.412,"mean_anomaly_deg":103.6668,"bstar":-1.245e-6,"rev_number":8923,"period_min":94.267125268725,"perigee_km":482.67833739601,"apogee_km":483.45639797131,"semimajor_km":6861.2043676837,"source":"CELESTRAK","updated_at":"2026-05-25T13:38:19.410000Z"}}}